Location: Bjelajci
(45.0103°N, 16.1758°E)
Time: 09:25:03
(UTC+00:00)

Cosmos 1356 - Pass Details

Date: 14 July 2020
Orbit: 443 x 447 km, 81.1° (Epoch: 07 August)

Event Time Altitude Azimuth Distance (km) Brightness Sun altitude
Exits shadow 02:04:41 18° 219° (SW) 1,163 4.8 -11.4°
Maximum altitude 02:06:54 43° 284° (WNW) 646 4.0 -11.1°
Drops below altitude 10° 02:10:12 10° 357° (N) 1,582 6.8 -10.7°
Sets 02:12:21 0° 5° (N) 2,458 8.0 -10.4°
